Year,Month,Day,Hour,Minute,Value (Times are PST for temperature in C)
2012,07,14,00,00,16.70
2012,07,14,00,01,16.70
2012,07,14,00,02,16.70
2012,07,14,00,03,16.70
2012,07,14,00,04,16.70
2012,07,14,00,05,16.70
2012,07,14,00,06,16.70
2012,07,14,00,07,16.70
2012,07,14,00,08,16.70
2012,07,14,00,09,16.70
2012,07,14,00,10,16.70
2012,07,14,00,11,16.70
2012,07,14,00,12,16.70
2012,07,14,00,13,16.70
2012,07,14,00,14,16.70
2012,07,14,00,15,16.70
2012,07,14,00,16,16.70
2012,07,14,00,17,16.70
2012,07,14,00,18,16.70
2012,07,14,00,19,16.70
2012,07,14,00,20,16.70
2012,07,14,00,21,16.70
2012,07,14,00,22,16.70
2012,07,14,00,23,16.70
2012,07,14,00,24,16.70
2012,07,14,00,25,16.70
2012,07,14,00,26,16.60
2012,07,14,00,27,16.60
2012,07,14,00,28,16.60
2012,07,14,00,29,16.50
2012,07,14,00,30,16.50
2012,07,14,00,31,16.50
2012,07,14,00,32,16.50
2012,07,14,00,33,16.40
2012,07,14,00,34,16.40
2012,07,14,00,35,16.40
2012,07,14,00,36,16.40
2012,07,14,00,37,16.40
2012,07,14,00,38,16.30
2012,07,14,00,39,16.30
2012,07,14,00,40,16.30
2012,07,14,00,41,16.20
2012,07,14,00,42,16.20
2012,07,14,00,43,16.20
2012,07,14,00,44,16.10
2012,07,14,00,45,16.10
2012,07,14,00,46,16.10
2012,07,14,00,47,16.00
2012,07,14,00,48,16.00
2012,07,14,00,49,16.00
2012,07,14,00,50,15.90
2012,07,14,00,51,15.90
2012,07,14,00,52,15.90
2012,07,14,00,53,15.80
2012,07,14,00,54,15.80
2012,07,14,00,55,15.80
2012,07,14,00,56,15.80
2012,07,14,00,57,15.70
2012,07,14,00,58,15.70
2012,07,14,00,59,15.70
2012,07,14,01,00,15.70
2012,07,14,01,01,15.70
2012,07,14,01,02,15.60
2012,07,14,01,03,15.60
2012,07,14,01,04,15.60
2012,07,14,01,05,15.60
2012,07,14,01,06,15.60
2012,07,14,01,07,15.50
2012,07,14,01,08,15.50
2012,07,14,01,09,15.50
2012,07,14,01,10,15.50
2012,07,14,01,11,15.50
2012,07,14,01,12,15.40
2012,07,14,01,13,15.40
2012,07,14,01,14,15.40
2012,07,14,01,15,15.40
2012,07,14,01,16,15.40
2012,07,14,01,17,15.30
2012,07,14,01,18,15.30
2012,07,14,01,19,15.30
2012,07,14,01,20,15.20
2012,07,14,01,21,15.20
2012,07,14,01,22,15.20
2012,07,14,01,23,15.20
2012,07,14,01,24,15.10
2012,07,14,01,25,15.10
2012,07,14,01,26,15.10
2012,07,14,01,27,15.10
2012,07,14,01,28,15.10
2012,07,14,01,29,15.10
2012,07,14,01,30,15.10
2012,07,14,01,31,15.10
2012,07,14,01,32,15.00
2012,07,14,01,33,15.00
2012,07,14,01,34,15.00
2012,07,14,01,35,15.00
2012,07,14,01,36,15.00
2012,07,14,01,37,15.00
2012,07,14,01,38,15.00
2012,07,14,01,39,15.00
2012,07,14,01,40,14.90
2012,07,14,01,41,14.90
2012,07,14,01,42,14.90
2012,07,14,01,43,14.90
2012,07,14,01,44,14.90
2012,07,14,01,45,14.90
2012,07,14,01,46,14.90
2012,07,14,01,47,14.90
2012,07,14,01,48,14.90
2012,07,14,01,49,14.90
2012,07,14,01,50,14.90
2012,07,14,01,51,14.90
2012,07,14,01,52,14.90
2012,07,14,01,53,14.90
2012,07,14,01,54,14.90
2012,07,14,01,55,14.90
2012,07,14,01,56,14.90
2012,07,14,01,57,14.90
2012,07,14,01,58,14.90
2012,07,14,01,59,14.90
2012,07,14,02,00,14.90
2012,07,14,02,01,14.90
2012,07,14,02,02,14.90
2012,07,14,02,03,14.90
2012,07,14,02,04,14.90
2012,07,14,02,05,14.90
2012,07,14,02,06,14.90
2012,07,14,02,07,14.90
2012,07,14,02,08,14.90
2012,07,14,02,09,14.90
2012,07,14,02,10,14.90
2012,07,14,02,11,14.90
2012,07,14,02,12,14.90
2012,07,14,02,13,14.90
2012,07,14,02,14,14.90
2012,07,14,02,15,14.90
2012,07,14,02,16,14.90
2012,07,14,02,17,14.90
2012,07,14,02,18,14.90
2012,07,14,02,19,14.90
2012,07,14,02,20,14.90
2012,07,14,02,21,14.90
2012,07,14,02,22,14.90
2012,07,14,02,23,14.90
2012,07,14,02,24,15.00
2012,07,14,02,25,15.00
2012,07,14,02,26,15.00
2012,07,14,02,27,15.10
2012,07,14,02,28,15.10
2012,07,14,02,29,15.10
2012,07,14,02,30,15.20
2012,07,14,02,31,15.20
2012,07,14,02,32,15.20
2012,07,14,02,33,15.30
2012,07,14,02,34,15.30
2012,07,14,02,35,15.30
2012,07,14,02,36,15.30
2012,07,14,02,37,15.40
2012,07,14,02,38,15.40
2012,07,14,02,39,15.40
2012,07,14,02,40,15.50
2012,07,14,02,41,15.50
2012,07,14,02,42,15.60
2012,07,14,02,43,15.60
2012,07,14,02,44,15.60
2012,07,14,02,45,15.60
2012,07,14,02,46,15.60
2012,07,14,02,47,15.50
2012,07,14,02,48,15.50
2012,07,14,02,49,15.50
2012,07,14,02,50,15.50
2012,07,14,02,51,15.50
2012,07,14,02,52,15.50
2012,07,14,02,53,15.50
2012,07,14,02,54,15.50
2012,07,14,02,55,15.50
2012,07,14,02,56,15.50
2012,07,14,02,57,15.60
2012,07,14,02,58,15.60
2012,07,14,02,59,15.60
2012,07,14,03,00,15.60
2012,07,14,03,01,15.60
2012,07,14,03,02,15.60
2012,07,14,03,03,15.60
2012,07,14,03,04,15.60
2012,07,14,03,05,15.70
2012,07,14,03,06,15.70
2012,07,14,03,07,15.70
2012,07,14,03,08,15.70
2012,07,14,03,09,15.70
2012,07,14,03,10,15.80
2012,07,14,03,11,15.80
2012,07,14,03,12,15.80
2012,07,14,03,13,15.80
2012,07,14,03,14,15.80
2012,07,14,03,15,15.80
2012,07,14,03,16,15.80
2012,07,14,03,17,15.80
2012,07,14,03,18,15.80
2012,07,14,03,19,15.80
2012,07,14,03,20,15.80
2012,07,14,03,21,15.80
2012,07,14,03,22,15.70
2012,07,14,03,23,15.70
2012,07,14,03,24,15.70
2012,07,14,03,25,15.70
2012,07,14,03,26,15.70
2012,07,14,03,27,15.60
2012,07,14,03,28,15.60
2012,07,14,03,29,15.60
2012,07,14,03,30,15.60
2012,07,14,03,31,15.60
2012,07,14,03,32,15.60
2012,07,14,03,33,15.60
2012,07,14,03,34,15.60
2012,07,14,03,35,15.60
2012,07,14,03,36,15.60
2012,07,14,03,37,15.60
2012,07,14,03,38,15.70
2012,07,14,03,39,15.70
2012,07,14,03,40,15.80
2012,07,14,03,41,15.80
2012,07,14,03,42,15.90
2012,07,14,03,43,15.90
2012,07,14,03,44,15.90
2012,07,14,03,45,15.90
2012,07,14,03,46,15.90
2012,07,14,03,47,15.80
2012,07,14,03,48,15.80
2012,07,14,03,49,15.80
2012,07,14,03,50,15.80
2012,07,14,03,51,15.80
2012,07,14,03,52,15.80
2012,07,14,03,53,15.80
2012,07,14,03,54,15.80
2012,07,14,03,55,15.80
2012,07,14,03,56,15.80
2012,07,14,03,57,15.80
2012,07,14,03,58,15.90
2012,07,14,03,59,15.90
2012,07,14,04,00,15.90
2012,07,14,04,01,15.90
2012,07,14,04,02,15.90
2012,07,14,04,03,15.90
2012,07,14,04,04,15.90
2012,07,14,04,05,15.90
2012,07,14,04,06,15.90
2012,07,14,04,07,15.90
2012,07,14,04,08,15.90
2012,07,14,04,09,15.90
2012,07,14,04,10,15.90
2012,07,14,04,11,15.90
2012,07,14,04,12,15.90
2012,07,14,04,13,15.90
2012,07,14,04,14,15.90
2012,07,14,04,15,15.90
2012,07,14,04,16,15.90
2012,07,14,04,17,15.90
2012,07,14,04,18,15.90
2012,07,14,04,19,15.90
2012,07,14,04,20,15.90
2012,07,14,04,21,15.90
2012,07,14,04,22,15.90
2012,07,14,04,23,15.90
2012,07,14,04,24,15.90
2012,07,14,04,25,15.90
2012,07,14,04,26,15.80
2012,07,14,04,27,15.80
2012,07,14,04,28,15.80
2012,07,14,04,29,15.80
2012,07,14,04,30,15.80
2012,07,14,04,31,15.80
2012,07,14,04,32,15.80
2012,07,14,04,33,15.80
2012,07,14,04,34,15.80
2012,07,14,04,35,15.80
2012,07,14,04,36,15.80
2012,07,14,04,37,15.80
2012,07,14,04,38,15.80
2012,07,14,04,39,15.80
2012,07,14,04,40,15.80
2012,07,14,04,41,15.80
2012,07,14,04,42,15.80
2012,07,14,04,43,15.80
2012,07,14,04,44,15.80
2012,07,14,04,45,15.80
2012,07,14,04,46,15.80
2012,07,14,04,47,15.80
2012,07,14,04,48,15.80
2012,07,14,04,49,15.80
2012,07,14,04,50,15.80
2012,07,14,04,51,15.80
2012,07,14,04,52,15.80
2012,07,14,04,53,15.80
2012,07,14,04,54,15.80
2012,07,14,04,55,15.80
2012,07,14,04,56,15.80
2012,07,14,04,57,15.80
2012,07,14,04,58,15.80
2012,07,14,04,59,15.80
2012,07,14,05,00,15.80
2012,07,14,05,01,15.90
2012,07,14,05,02,15.90
2012,07,14,05,03,15.90
2012,07,14,05,04,15.90
2012,07,14,05,05,16.00
2012,07,14,05,06,16.00
2012,07,14,05,07,16.00
2012,07,14,05,08,16.10
2012,07,14,05,09,16.10
2012,07,14,05,10,16.10
2012,07,14,05,11,16.10
2012,07,14,05,12,16.10
2012,07,14,05,13,16.10
2012,07,14,05,14,16.10
2012,07,14,05,15,16.10
2012,07,14,05,16,16.10
2012,07,14,05,17,16.10
2012,07,14,05,18,16.10
2012,07,14,05,19,16.10
2012,07,14,05,20,16.10
2012,07,14,05,21,16.10
2012,07,14,05,22,16.10
2012,07,14,05,23,16.10
2012,07,14,05,24,16.10
2012,07,14,05,25,16.10
2012,07,14,05,26,16.10
2012,07,14,05,27,16.00
2012,07,14,05,28,16.00
2012,07,14,05,29,16.00
2012,07,14,05,30,16.00
2012,07,14,05,31,15.90
2012,07,14,05,32,15.90
2012,07,14,05,33,15.90
2012,07,14,05,34,15.90
2012,07,14,05,35,15.90
2012,07,14,05,36,15.90
2012,07,14,05,37,15.90
2012,07,14,05,38,15.90
2012,07,14,05,39,15.90
2012,07,14,05,40,15.90
2012,07,14,05,41,15.90
2012,07,14,05,42,15.90
2012,07,14,05,43,15.90
2012,07,14,05,44,15.90
2012,07,14,05,45,15.90
2012,07,14,05,46,15.90
2012,07,14,05,47,15.90
2012,07,14,05,48,15.90
2012,07,14,05,49,15.90
2012,07,14,05,50,15.90
2012,07,14,05,51,15.90
2012,07,14,05,52,15.90
2012,07,14,05,53,15.90
2012,07,14,05,54,15.90
2012,07,14,05,55,15.90
2012,07,14,05,56,15.90
2012,07,14,05,57,15.90
2012,07,14,05,58,16.00
2012,07,14,05,59,16.00
2012,07,14,06,00,16.00
2012,07,14,06,01,16.00
2012,07,14,06,02,16.00
2012,07,14,06,03,16.00
2012,07,14,06,04,16.00
2012,07,14,06,05,16.10
2012,07,14,06,06,16.10
2012,07,14,06,07,16.10
2012,07,14,06,08,16.10
2012,07,14,06,09,16.10
2012,07,14,06,10,16.20
2012,07,14,06,11,16.20
2012,07,14,06,12,16.20
2012,07,14,06,13,16.20
2012,07,14,06,14,16.30
2012,07,14,06,15,16.30
2012,07,14,06,16,16.30
2012,07,14,06,17,16.30
2012,07,14,06,18,16.20
2012,07,14,06,19,16.20
2012,07,14,06,20,16.20
2012,07,14,06,21,16.20
2012,07,14,06,22,16.20
2012,07,14,06,23,16.20
2012,07,14,06,24,16.10
2012,07,14,06,25,16.10
2012,07,14,06,26,16.10
2012,07,14,06,27,16.10
2012,07,14,06,28,16.10
2012,07,14,06,29,16.10
2012,07,14,06,30,16.10
2012,07,14,06,31,16.10
2012,07,14,06,32,16.10
2012,07,14,06,33,16.20
2012,07,14,06,34,16.20
2012,07,14,06,35,16.20
2012,07,14,06,36,16.20
2012,07,14,06,37,16.20
2012,07,14,06,38,16.20
2012,07,14,06,39,16.10
2012,07,14,06,40,16.10
2012,07,14,06,41,16.10
2012,07,14,06,42,16.10
2012,07,14,06,43,16.10
2012,07,14,06,44,16.10
2012,07,14,06,45,16.10
2012,07,14,06,46,16.10
2012,07,14,06,47,16.10
2012,07,14,06,48,16.20
2012,07,14,06,49,16.20
2012,07,14,06,50,16.20
2012,07,14,06,51,16.20
2012,07,14,06,52,16.20
2012,07,14,06,53,16.20
2012,07,14,06,54,16.20
2012,07,14,06,55,16.30
2012,07,14,06,56,16.30
2012,07,14,06,57,16.30
2012,07,14,06,58,16.30
2012,07,14,06,59,16.30
2012,07,14,07,00,16.30
2012,07,14,07,01,16.30
2012,07,14,07,02,16.30
2012,07,14,07,03,16.20
2012,07,14,07,04,16.20
2012,07,14,07,05,16.20
2012,07,14,07,06,16.20
2012,07,14,07,07,16.20
2012,07,14,07,08,16.20
2012,07,14,07,09,16.20
2012,07,14,07,10,16.30
2012,07,14,07,11,16.30
2012,07,14,07,12,16.30
2012,07,14,07,13,16.30
2012,07,14,07,14,16.40
2012,07,14,07,15,16.40
2012,07,14,07,16,16.50
2012,07,14,07,17,16.50
2012,07,14,07,18,16.60
2012,07,14,07,19,16.70
2012,07,14,07,20,16.70
2012,07,14,07,21,16.80
2012,07,14,07,22,16.90
2012,07,14,07,23,16.90
2012,07,14,07,24,17.00
2012,07,14,07,25,17.10
2012,07,14,07,26,17.10
2012,07,14,07,27,17.20
2012,07,14,07,28,17.30
2012,07,14,07,29,17.30
2012,07,14,07,30,17.40
2012,07,14,07,31,17.50
2012,07,14,07,32,17.50
2012,07,14,07,33,17.60
2012,07,14,07,34,17.70
2012,07,14,07,35,17.70
2012,07,14,07,36,17.80
2012,07,14,07,37,17.90
2012,07,14,07,38,17.90
2012,07,14,07,39,18.00
2012,07,14,07,40,18.10
2012,07,14,07,41,18.10
2012,07,14,07,42,18.20
2012,07,14,07,43,18.20
2012,07,14,07,44,18.30
2012,07,14,07,45,18.30
2012,07,14,07,46,18.40
2012,07,14,07,47,18.50
2012,07,14,07,48,18.50
2012,07,14,07,49,18.60
2012,07,14,07,50,18.70
2012,07,14,07,51,18.70
2012,07,14,07,52,18.70
2012,07,14,07,53,18.80
2012,07,14,07,54,18.80
2012,07,14,07,55,18.90
2012,07,14,07,56,18.90
2012,07,14,07,57,19.00
2012,07,14,07,58,19.10
2012,07,14,07,59,19.20
2012,07,14,08,00,19.30
2012,07,14,08,01,19.40
2012,07,14,08,02,19.40
2012,07,14,08,03,19.50
2012,07,14,08,04,19.50
2012,07,14,08,05,19.50
2012,07,14,08,06,19.60
2012,07,14,08,07,19.60
2012,07,14,08,08,19.70
2012,07,14,08,09,19.70
2012,07,14,08,10,19.80
2012,07,14,08,11,19.80
2012,07,14,08,12,19.80
2012,07,14,08,13,19.90
2012,07,14,08,14,20.00
2012,07,14,08,15,20.00
2012,07,14,08,16,20.10
2012,07,14,08,17,20.20
2012,07,14,08,18,20.20
2012,07,14,08,19,20.20
2012,07,14,08,20,20.20
2012,07,14,08,21,20.30
2012,07,14,08,22,20.30
2012,07,14,08,23,20.30
2012,07,14,08,24,20.30
2012,07,14,08,25,20.30
2012,07,14,08,26,20.30
2012,07,14,08,27,20.30
2012,07,14,08,28,20.30
2012,07,14,08,29,20.30
2012,07,14,08,30,20.30
2012,07,14,08,31,20.30
2012,07,14,08,32,20.30
2012,07,14,08,33,20.30
2012,07,14,08,34,20.30
2012,07,14,08,35,20.30
2012,07,14,08,36,20.30
2012,07,14,08,37,20.30
2012,07,14,08,38,20.30
2012,07,14,08,39,20.30
2012,07,14,08,40,20.40
2012,07,14,08,41,20.40
2012,07,14,08,42,20.40
2012,07,14,08,43,20.40
2012,07,14,08,44,20.50
2012,07,14,08,45,20.50
2012,07,14,08,46,20.60
2012,07,14,08,47,20.60
2012,07,14,08,48,20.70
2012,07,14,08,49,20.70
2012,07,14,08,50,20.70
2012,07,14,08,51,20.70
2012,07,14,08,52,20.80
2012,07,14,08,53,20.80
2012,07,14,08,54,20.90
2012,07,14,08,55,20.90
2012,07,14,08,56,20.90
2012,07,14,08,57,20.90
2012,07,14,08,58,20.90
2012,07,14,08,59,20.90
2012,07,14,09,00,20.90
2012,07,14,09,01,20.90
2012,07,14,09,02,20.90
2012,07,14,09,03,20.90
2012,07,14,09,04,20.90
2012,07,14,09,05,20.90
2012,07,14,09,06,21.00
2012,07,14,09,07,21.10
2012,07,14,09,08,21.10
2012,07,14,09,09,21.10
2012,07,14,09,10,21.20
2012,07,14,09,11,21.30
2012,07,14,09,12,21.30
2012,07,14,09,13,21.40
2012,07,14,09,14,21.40
2012,07,14,09,15,21.40
2012,07,14,09,16,21.40
2012,07,14,09,17,21.40
2012,07,14,09,18,21.40
2012,07,14,09,19,21.40
2012,07,14,09,20,21.40
2012,07,14,09,21,21.40
2012,07,14,09,22,21.40
2012,07,14,09,23,21.40
2012,07,14,09,24,21.50
2012,07,14,09,25,21.50
2012,07,14,09,26,21.50
2012,07,14,09,27,21.50
2012,07,14,09,28,21.60
2012,07,14,09,29,21.60
2012,07,14,09,30,21.50
2012,07,14,09,31,21.50
2012,07,14,09,32,21.50
2012,07,14,09,33,21.50
2012,07,14,09,34,21.50
2012,07,14,09,35,21.50
2012,07,14,09,36,21.60
2012,07,14,09,37,21.60
2012,07,14,09,38,21.60
2012,07,14,09,39,21.60
2012,07,14,09,40,21.70
2012,07,14,09,41,21.70
2012,07,14,09,42,21.70
2012,07,14,09,43,21.70
2012,07,14,09,44,21.70
2012,07,14,09,45,21.80
2012,07,14,09,46,21.80
2012,07,14,09,47,21.80
2012,07,14,09,48,21.80
2012,07,14,09,49,21.90
2012,07,14,09,50,21.90
2012,07,14,09,51,21.90
2012,07,14,09,52,22.00
2012,07,14,09,53,22.00
2012,07,14,09,54,22.10
2012,07,14,09,55,22.10
2012,07,14,09,56,22.10
2012,07,14,09,57,22.10
2012,07,14,09,58,22.10
2012,07,14,09,59,22.10
2012,07,14,10,00,22.10
2012,07,14,10,01,22.10
2012,07,14,10,02,22.10
2012,07,14,10,03,22.20
2012,07,14,10,04,22.20
2012,07,14,10,05,22.20
2012,07,14,10,06,22.20
2012,07,14,10,07,22.20
2012,07,14,10,08,22.20
2012,07,14,10,09,22.20
2012,07,14,10,10,22.20
2012,07,14,10,11,22.20
2012,07,14,10,12,22.20
2012,07,14,10,13,22.20
2012,07,14,10,14,22.20
2012,07,14,10,15,22.20
2012,07,14,10,16,22.20
2012,07,14,10,17,22.20
2012,07,14,10,18,22.20
2012,07,14,10,19,22.20
2012,07,14,10,20,22.20
2012,07,14,10,21,22.20
2012,07,14,10,22,22.20
2012,07,14,10,23,22.20
2012,07,14,10,24,22.10
2012,07,14,10,25,22.10
2012,07,14,10,26,22.10
2012,07,14,10,27,22.00
2012,07,14,10,28,22.00
2012,07,14,10,29,22.00
2012,07,14,10,30,22.00
2012,07,14,10,31,22.00
2012,07,14,10,32,22.00
2012,07,14,10,33,22.00
2012,07,14,10,34,22.00
2012,07,14,10,35,22.00
2012,07,14,10,36,22.10
2012,07,14,10,37,22.10
2012,07,14,10,38,22.10
2012,07,14,10,39,22.10
2012,07,14,10,40,22.20
2012,07,14,10,41,22.20
2012,07,14,10,42,22.20
2012,07,14,10,43,22.10
2012,07,14,10,44,22.10
2012,07,14,10,45,22.20
2012,07,14,10,46,22.20
2012,07,14,10,47,22.20
2012,07,14,10,48,22.30
2012,07,14,10,49,22.30
2012,07,14,10,50,22.30
2012,07,14,10,51,22.30
2012,07,14,10,52,22.30
2012,07,14,10,53,22.30
2012,07,14,10,54,22.30
2012,07,14,10,55,22.30
2012,07,14,10,56,22.30
2012,07,14,10,57,22.30
2012,07,14,10,58,22.30
2012,07,14,10,59,22.30
2012,07,14,11,00,22.30
2012,07,14,11,01,22.30
2012,07,14,11,02,22.30
2012,07,14,11,03,22.40
2012,07,14,11,04,22.40
2012,07,14,11,05,22.50
2012,07,14,11,06,22.50
2012,07,14,11,07,22.60
2012,07,14,11,08,22.60
2012,07,14,11,09,22.60
2012,07,14,11,10,22.60
2012,07,14,11,11,22.60
2012,07,14,11,12,22.60
2012,07,14,11,13,22.60
2012,07,14,11,14,22.70
2012,07,14,11,15,22.70
2012,07,14,11,16,22.80
2012,07,14,11,17,22.80
2012,07,14,11,18,22.80
2012,07,14,11,19,22.70
2012,07,14,11,20,22.70
2012,07,14,11,21,22.70
2012,07,14,11,22,22.70
2012,07,14,11,23,22.70
2012,07,14,11,24,22.70
2012,07,14,11,25,22.70
2012,07,14,11,26,22.70
2012,07,14,11,27,22.70
2012,07,14,11,28,22.70
2012,07,14,11,29,22.70
2012,07,14,11,30,22.70
2012,07,14,11,31,22.70
2012,07,14,11,32,22.70
2012,07,14,11,33,22.70
2012,07,14,11,34,22.70
2012,07,14,11,35,22.70
2012,07,14,11,36,22.70
2012,07,14,11,37,22.70
2012,07,14,11,38,22.70
2012,07,14,11,39,22.70
2012,07,14,11,40,22.70
2012,07,14,11,41,22.70
2012,07,14,11,42,22.70
2012,07,14,11,43,22.70
2012,07,14,11,44,22.70
2012,07,14,11,45,22.70
2012,07,14,11,46,22.60
2012,07,14,11,47,22.60
2012,07,14,11,48,22.70
2012,07,14,11,49,22.60
2012,07,14,11,50,22.60
2012,07,14,11,51,22.50
2012,07,14,11,52,22.50
2012,07,14,11,53,22.50
2012,07,14,11,54,22.50
2012,07,14,11,55,22.40
2012,07,14,11,56,22.40
2012,07,14,11,57,22.40
2012,07,14,11,58,22.40
2012,07,14,11,59,22.40
2012,07,14,12,00,22.40
2012,07,14,12,01,22.40
2012,07,14,12,02,22.40
2012,07,14,12,03,22.40
2012,07,14,12,04,22.40
2012,07,14,12,05,22.40
2012,07,14,12,06,22.40
2012,07,14,12,07,22.40
2012,07,14,12,08,22.40
2012,07,14,12,09,22.40
2012,07,14,12,10,22.40
2012,07,14,12,11,22.40
2012,07,14,12,12,22.40
2012,07,14,12,13,22.30
2012,07,14,12,14,22.30
2012,07,14,12,15,22.30
2012,07,14,12,16,22.30
2012,07,14,12,17,22.30
2012,07,14,12,18,22.30
2012,07,14,12,19,22.30
2012,07,14,12,20,22.30
2012,07,14,12,21,22.30
2012,07,14,12,22,22.40
2012,07,14,12,23,22.40
2012,07,14,12,24,22.40
2012,07,14,12,25,22.40
2012,07,14,12,26,22.40
2012,07,14,12,27,22.40
2012,07,14,12,28,22.40
2012,07,14,12,29,22.40
2012,07,14,12,30,22.50
2012,07,14,12,31,22.50
2012,07,14,12,32,22.50
2012,07,14,12,33,22.50
2012,07,14,12,34,22.50
2012,07,14,12,35,22.50
2012,07,14,12,36,22.50
2012,07,14,12,37,22.50
2012,07,14,12,38,22.50
2012,07,14,12,39,22.50
2012,07,14,12,40,22.50
2012,07,14,12,41,22.50
2012,07,14,12,42,22.50
2012,07,14,12,43,22.60
2012,07,14,12,44,22.60
2012,07,14,12,45,22.60
2012,07,14,12,46,22.60
2012,07,14,12,47,22.60
2012,07,14,12,48,22.60
2012,07,14,12,49,22.60
2012,07,14,12,50,22.60
2012,07,14,12,51,22.60
2012,07,14,12,52,22.60
2012,07,14,12,53,22.60
2012,07,14,12,54,22.60
2012,07,14,12,55,22.70
2012,07,14,12,56,22.60
2012,07,14,12,57,22.60
2012,07,14,12,58,22.60
2012,07,14,12,59,22.60
2012,07,14,13,00,22.60
2012,07,14,13,01,22.60
2012,07,14,13,02,22.60
2012,07,14,13,03,22.60
2012,07,14,13,04,22.70
2012,07,14,13,05,22.70
2012,07,14,13,06,22.70
2012,07,14,13,07,22.70
2012,07,14,13,08,22.80
2012,07,14,13,09,22.80
2012,07,14,13,10,22.80
2012,07,14,13,11,22.80
2012,07,14,13,12,22.80
2012,07,14,13,13,22.90
2012,07,14,13,14,22.90
2012,07,14,13,15,22.90
2012,07,14,13,16,22.90
2012,07,14,13,17,22.90
2012,07,14,13,18,22.90
2012,07,14,13,19,22.90
2012,07,14,13,20,22.80
2012,07,14,13,21,22.80
2012,07,14,13,22,22.90
2012,07,14,13,23,22.90
2012,07,14,13,24,23.00
2012,07,14,13,25,23.00
2012,07,14,13,26,23.10
2012,07,14,13,27,23.10
2012,07,14,13,28,23.10
2012,07,14,13,29,23.20
2012,07,14,13,30,23.20
2012,07,14,13,31,23.20
2012,07,14,13,32,23.20
2012,07,14,13,33,23.20
2012,07,14,13,34,23.20
2012,07,14,13,35,23.30
2012,07,14,13,36,23.30
2012,07,14,13,37,23.40
2012,07,14,13,38,23.40
2012,07,14,13,39,23.40
2012,07,14,13,40,23.40
2012,07,14,13,41,23.40
2012,07,14,13,42,23.50
2012,07,14,13,43,23.50
2012,07,14,13,44,23.50
2012,07,14,13,45,23.50
2012,07,14,13,46,23.50
2012,07,14,13,47,23.60
2012,07,14,13,48,23.60
2012,07,14,13,49,23.60
2012,07,14,13,50,23.60
2012,07,14,13,51,23.50
2012,07,14,13,52,23.50
2012,07,14,13,53,23.50
2012,07,14,13,54,23.50
2012,07,14,13,55,23.50
2012,07,14,13,56,23.50
2012,07,14,13,57,23.60
2012,07,14,13,58,23.60
2012,07,14,13,59,23.70
2012,07,14,14,00,23.70
2012,07,14,14,01,23.80
2012,07,14,14,02,23.80
2012,07,14,14,03,23.80
2012,07,14,14,04,23.90
2012,07,14,14,05,23.90
2012,07,14,14,06,24.00
2012,07,14,14,07,24.00
2012,07,14,14,08,24.00
2012,07,14,14,09,24.10
2012,07,14,14,10,24.10
2012,07,14,14,11,24.00
2012,07,14,14,12,24.00
2012,07,14,14,13,23.90
2012,07,14,14,14,23.90
2012,07,14,14,15,23.90
2012,07,14,14,16,24.00
2012,07,14,14,17,24.00
2012,07,14,14,18,24.00
2012,07,14,14,19,24.00
2012,07,14,14,20,24.00
2012,07,14,14,21,24.00
2012,07,14,14,22,24.10
2012,07,14,14,23,24.10
2012,07,14,14,24,24.10
2012,07,14,14,25,24.10
2012,07,14,14,26,24.10
2012,07,14,14,27,24.00
2012,07,14,14,28,24.00
2012,07,14,14,29,24.00
2012,07,14,14,30,24.00
2012,07,14,14,31,24.00
2012,07,14,14,32,24.00
2012,07,14,14,33,23.90
2012,07,14,14,34,23.90
2012,07,14,14,35,23.80
2012,07,14,14,36,23.80
2012,07,14,14,37,23.80
2012,07,14,14,38,23.80
2012,07,14,14,39,23.80
2012,07,14,14,40,23.80
2012,07,14,14,41,23.80
2012,07,14,14,42,23.80
2012,07,14,14,43,23.80
2012,07,14,14,44,23.70
2012,07,14,14,45,23.70
2012,07,14,14,46,23.70
2012,07,14,14,47,23.70
2012,07,14,14,48,23.60
2012,07,14,14,49,23.60
2012,07,14,14,50,23.60
2012,07,14,14,51,23.50
2012,07,14,14,52,23.40
2012,07,14,14,53,23.40
2012,07,14,14,54,23.50
2012,07,14,14,55,23.50
2012,07,14,14,56,23.50
2012,07,14,14,57,23.50
2012,07,14,14,58,23.50
2012,07,14,14,59,23.50
2012,07,14,15,00,23.40
2012,07,14,15,01,23.40
2012,07,14,15,02,23.40
2012,07,14,15,03,23.40
2012,07,14,15,04,23.40
2012,07,14,15,05,23.40
2012,07,14,15,06,23.40
2012,07,14,15,07,23.40
2012,07,14,15,08,23.40
2012,07,14,15,09,23.30
2012,07,14,15,10,23.30
2012,07,14,15,11,23.20
2012,07,14,15,12,23.20
2012,07,14,15,13,23.10
2012,07,14,15,14,23.10
2012,07,14,15,15,23.10
2012,07,14,15,16,23.10
2012,07,14,15,17,23.10
2012,07,14,15,18,23.20
2012,07,14,15,19,23.10
2012,07,14,15,20,23.10
2012,07,14,15,21,23.10
2012,07,14,15,22,23.10
2012,07,14,15,23,23.10
2012,07,14,15,24,23.10
2012,07,14,15,25,23.10
2012,07,14,15,26,23.10
2012,07,14,15,27,23.20
2012,07,14,15,28,23.20
2012,07,14,15,29,23.20
2012,07,14,15,30,23.30
2012,07,14,15,31,23.30
2012,07,14,15,32,23.20
2012,07,14,15,33,23.20
2012,07,14,15,34,23.30
2012,07,14,15,35,23.20
2012,07,14,15,36,23.20
2012,07,14,15,37,23.20
2012,07,14,15,38,23.30
2012,07,14,15,39,23.30
2012,07,14,15,40,23.30
2012,07,14,15,41,23.30
2012,07,14,15,42,23.30
2012,07,14,15,43,23.30
2012,07,14,15,44,23.30
2012,07,14,15,45,23.30
2012,07,14,15,46,23.40
2012,07,14,15,47,23.40
2012,07,14,15,48,23.40
2012,07,14,15,49,23.50
2012,07,14,15,50,23.50
2012,07,14,15,51,23.50
2012,07,14,15,52,23.60
2012,07,14,15,53,23.60
2012,07,14,15,54,23.60
2012,07,14,15,55,23.60
2012,07,14,15,56,23.60
2012,07,14,15,57,23.60
2012,07,14,15,58,23.70
2012,07,14,15,59,23.70
2012,07,14,16,00,23.70
2012,07,14,16,01,23.80
2012,07,14,16,02,23.80
2012,07,14,16,03,23.90
2012,07,14,16,04,23.90
2012,07,14,16,05,23.90
2012,07,14,16,06,24.00
2012,07,14,16,07,24.00
2012,07,14,16,08,24.00
2012,07,14,16,09,24.00
2012,07,14,16,10,24.10
2012,07,14,16,11,24.10
2012,07,14,16,12,24.00
2012,07,14,16,13,24.00
2012,07,14,16,14,24.00
2012,07,14,16,15,24.00
2012,07,14,16,16,23.90
2012,07,14,16,17,23.90
2012,07,14,16,18,23.90
2012,07,14,16,19,23.90
2012,07,14,16,20,23.90
2012,07,14,16,21,23.90
2012,07,14,16,22,23.90
2012,07,14,16,23,24.00
2012,07,14,16,24,24.00
2012,07,14,16,25,24.00
2012,07,14,16,26,24.10
2012,07,14,16,27,24.10
2012,07,14,16,28,24.10
2012,07,14,16,29,24.20
2012,07,14,16,30,24.20
2012,07,14,16,31,24.20
2012,07,14,16,32,24.20
2012,07,14,16,33,24.20
2012,07,14,16,34,24.20
2012,07,14,16,35,24.20
2012,07,14,16,36,24.30
2012,07,14,16,37,24.30
2012,07,14,16,38,24.30
2012,07,14,16,39,24.30
2012,07,14,16,40,24.30
2012,07,14,16,41,24.30
2012,07,14,16,42,24.40
2012,07,14,16,43,24.40
2012,07,14,16,44,24.40
2012,07,14,16,45,24.50
2012,07,14,16,46,24.50
2012,07,14,16,47,24.50
2012,07,14,16,48,24.60
2012,07,14,16,49,24.60
2012,07,14,16,50,24.60
2012,07,14,16,51,24.70
2012,07,14,16,52,24.70
2012,07,14,16,53,24.70
2012,07,14,16,54,24.70
2012,07,14,16,55,24.70
2012,07,14,16,56,24.70
2012,07,14,16,57,24.60
2012,07,14,16,58,24.60
2012,07,14,16,59,24.60
2012,07,14,17,00,24.60
2012,07,14,17,01,24.60
2012,07,14,17,02,24.60
2012,07,14,17,03,24.60
2012,07,14,17,04,24.60
2012,07,14,17,05,24.60
2012,07,14,17,06,24.60
2012,07,14,17,07,24.60
2012,07,14,17,08,24.60
2012,07,14,17,09,24.60
2012,07,14,17,10,24.60
2012,07,14,17,11,24.60
2012,07,14,17,12,24.60
2012,07,14,17,13,24.60
2012,07,14,17,14,24.70
2012,07,14,17,15,24.70
2012,07,14,17,16,24.70
2012,07,14,17,17,24.70
2012,07,14,17,18,24.70
2012,07,14,17,19,24.70